This is the latest recevied weather packets stored in our database for station/object N8DMH-13. If no packets are shown the sender has not sent any weather packets the latest 10 day(s).
| Time | Temp. | Humidity | Pressure | Rain* | Wind** | Luminosity | Snow |
|---|---|---|---|---|---|---|---|
| 1787773257 | 26.11° C | 64% | 1007.9 hPa | 0 mm | - | - | - |
| 1787772927 | 25.56° C | 66% | 1007.8 hPa | 0 mm | - | - | - |
| 1787772598 | 25.56° C | 66% | 1007.9 hPa | 0 mm | - | - | - |
| 1787772298 | 25.56° C | 67% | 1007.9 hPa | 0 mm | - | - | - |
| 1787771968 | 25.56° C | 66% | 1008.1 hPa | 0 mm | - | - | - |
| 1787771637 | 25.56° C | 66% | 1008 hPa | 0 mm | - | - | - |
| 1787771337 | 25.56° C | 67% | 1007.9 hPa | 0 mm | - | - | - |
| 1787771007 | 25.56° C | 68% | 1007.9 hPa | 0 mm | - | - | - |
| 1787770677 | 25° C | 68% | 1007.9 hPa | 0 mm | - | - | - |
| 1787770376 | 25° C | 69% | 1008 hPa | 0 mm | - | - | - |
| 1787770077 | 25.56° C | 69% | 1008 hPa | 0 mm | - | - | - |
| 1787769776 | 25.56° C | 68% | 1008 hPa | 0 mm | - | - | - |
| 1787769447 | 25.56° C | 72% | 1008 hPa | 0 mm | - | - | - |
| 1787769147 | 25° C | 72% | 1007.9 hPa | 0 mm | - | - | - |
| 1787768516 | 25° C | 71% | 1008.2 hPa | 0 mm | - | - | - |
| 1787768186 | 25° C | 74% | 1008.3 hPa | 0 mm | - | - | - |
| 1787767885 | 24.44° C | 75% | 1008.3 hPa | 0 mm | - | - | - |
| 1787767585 | 25° C | 74% | 1008.2 hPa | 0 mm | - | - | - |
| 1787767256 | 24.44° C | 74% | 1008.4 hPa | 0 mm | - | - | - |
| 1787766955 | 25° C | 73% | 1008.3 hPa | 0 mm | - | - | - |
| 1787766626 | 25° C | 74% | 1008.3 hPa | 0 mm | - | - | - |
| 1787766325 | 24.44° C | 75% | 1008.3 hPa | 0 mm | - | - | - |
| 1787765995 | 24.44° C | 74% | 1008.4 hPa | 0 mm | - | - | - |
| 1787765694 | 24.44° C | 76% | 1008.4 hPa | 0 mm | - | - | - |
| 1787765365 | 23.89° C | 77% | 1008.4 hPa | 0 mm | - | - | - |
* Rain latest hour (hover to see other rain measurements)
** Current wind speed in m/s (hover to see current wind gust speed)